Location: Unspecified
(0.0000°N, 0.0000°E)
Time: 10:16:34
(UTC+00:00)

A-11 Canister half - Pass Details

Date: 04 August 2021
Orbit: 1515 x 1685 km, 47.2° (Epoch: 27 September)

Event Time Altitude Azimuth Distance (km) Brightness Sun altitude
Rises 22:06:38 0° 357° (N) 4,922 11.9 -56.0°
Enters shadow 22:10:24 - 13° (NNE) 4,306 11.4 -56.8°
Reaches altitude 10° 22:14:44 10° 36° (NE) 3,934 - -57.7°
Maximum altitude 22:15:55 10° 43° (NE) 3,913 - -58.0°
Drops below altitude 10° 22:17:06 10° 50° (NE) 3,930 - -58.2°
Sets 22:25:02 0° 89° (E) 4,891 - -59.9°
